Location: Ernsee
(50.8780°N, 12.0389°E)
Time: 22:25:36
(UTC+00:00)

Cosmos 1726 - Pass Details

Date: 20 January 2020
Orbit: 482 x 500 km, 82.5° (Epoch: 16 February)

Event Time Altitude Azimuth Distance (km) Brightness Sun altitude
Rises 04:58:52 0° 183° (S) 2,559 5.8 -19.2°
Reaches altitude 10° 05:00:58 10° 181° (S) 1,680 4.9 -18.9°
Maximum altitude 05:04:37 70° 98° (E) 525 2.3 -18.4°
Drops below altitude 10° 05:08:18 10° 14° (NNE) 1,685 4.8 -17.8°
Sets 05:10:24 0° 13° (NNE) 2,569 5.8 -17.5°
